| time (UTC) | temp F | wind direction | speed MPH | gust MPH | rain 1hr in | rain 24hr in | rain mn in | humidity % | barometer mb |
| 20260510031703 | 54 | 91 | 5.0 | 6.0 | 0.00 | 0.02 | 0.00 | 91 | 1008.0 |
| 20260510031204 | 54 | 103 | 3.0 | 5.0 | 0.00 | 0.02 | 0.00 | 90 | 1008.0 |
| 20260510030204 | 54 | 79 | 1.0 | 2.0 | 0.00 | 0.02 | 0.00 | 90 | 1008.2 |
| 20260510024704 | 55 | 187 | 3.0 | 3.0 | 0.00 | 0.02 | 0.00 | 90 | 1008.3 |
| 20260510024204 | 55 | 163 | 2.0 | 2.0 | 0.00 | 0.02 | 0.00 | 89 | 1008.4 |
| 20260510023704 | 55 | 88 | 1.0 | 2.0 | 0.00 | 0.02 | 0.00 | 89 | 1008.4 |
| 20260510023204 | 56 | 1 | 2.0 | 3.0 | 0.00 | 0.02 | 0.00 | 88 | 1008.4 |
| 20260510022704 | 56 | 340 | 2.0 | 5.0 | 0.00 | 0.02 | 0.00 | 88 | 1008.5 |
| 20260510022204 | 56 | 329 | 2.0 | 6.0 | 0.00 | 0.02 | 0.00 | 88 | 1008.6 |
| 20260510021704 | 56 | 335 | 3.0 | 6.0 | 0.00 | 0.02 | 0.00 | 88 | 1008.6 |
| 20260510021204 | 56 | 328 | 3.0 | 6.0 | 0.00 | 0.02 | 0.00 | 87 | 1008.5 |
| 20260510020704 | 57 | 341 | 2.0 | 8.0 | 0.00 | 0.02 | 0.00 | 87 | 1008.5 |
| 20260510015704 | 57 | 329 | 5.0 | 8.0 | 0.00 | 0.02 | 0.00 | 86 | 1008.6 |
| 20260510014704 | 58 | 1 | 4.0 | 6.0 | 0.00 | 0.02 | 0.00 | 86 | 1008.5 |
| 20260510013704 | 57 | 308 | 2.0 | 5.0 | 0.00 | 0.02 | 0.00 | 87 | 1008.5 |
| 20260510013204 | 57 | 310 | 2.0 | 5.0 | 0.00 | 0.02 | 0.00 | 86 | 1008.6 |
| 20260510012703 | 57 | 324 | 4.0 | 5.0 | 0.00 | 0.02 | 0.00 | 85 | 1008.6 |
| 20260510012203 | 58 | 294 | 1.0 | 3.0 | 0.00 | 0.02 | 0.00 | 83 | 1008.6 |
| 20260510011704 | 58 | 345 | 2.0 | 3.0 | 0.00 | 0.02 | 0.00 | 82 | 1008.6 |
| 20260510011204 | 59 | 16 | 1.0 | 6.0 | 0.00 | 0.02 | 0.00 | 81 | 1008.6 |
| 20260510010704 | 59 | 118 | 2.0 | 9.0 | 0.00 | 0.02 | 0.00 | 78 | 1008.7 |
| 20260510010204 | 59 | 61 | 3.0 | 9.0 | 0.00 | 0.02 | 0.00 | 78 | 1008.8 |
| 20260510005204 | 60 | 79 | 5.0 | 8.0 | 0.00 | 0.02 | 0.00 | 79 | 1008.9 |
| 20260510004204 | 60 | 108 | 6.0 | 14.0 | 0.00 | 0.02 | 0.00 | 80 | 1008.9 |
| 20260510003704 | 60 | 97 | 6.0 | 17.0 | 0.00 | 0.02 | 0.00 | 80 | 1008.9 |
| 20260510003204 | 59 | 110 | 9.0 | 17.0 | 0.00 | 0.02 | 0.00 | 81 | 1008.9 |
| 20260510002704 | 60 | 110 | 9.0 | 18.0 | 0.01 | 0.02 | 0.00 | 81 | 1008.8 |
| 20260510002204 | 60 | 118 | 10.0 | 18.0 | 0.02 | 0.02 | 0.00 | 80 | 1008.8 |
| 20260510001704 | 60 | 112 | 10.0 | 17.0 | 0.02 | 0.02 | 0.00 | 80 | 1008.9 |
| 20260510001204 | 60 | 117 | 9.0 | 21.0 | 0.00 | 0.02 | 0.00 | 79 | 1009.0 |
| 20260510000704 | 60 | 114 | 12.0 | 25.0 | 0.00 | 0.02 | 0.00 | 78 | 1009.0 |
| 20260510000204 | 61 | 102 | 13.0 | 25.0 | 0.00 | 0.02 | 0.00 | 77 | 1009.0 |
| 20260509234704 | 61 | 89 | 10.0 | 22.0 | 0.02 | 0.02 | 0.02 | 75 | 1009.0 |
| 20260509233704 | 60 | 93 | 12.0 | 21.0 | 0.02 | 0.02 | 0.02 | 76 | 1009.0 |
| 20260509232703 | 61 | 83 | 12.0 | 24.0 | 0.02 | 0.02 | 0.02 | 72 | 1008.7 |
| 20260509232204 | 61 | 80 | 14.0 | 24.0 | 0.02 | 0.02 | 0.02 | 71 | 1008.9 |
| 20260509231703 | 61 | 79 | 12.0 | 23.0 | 0.01 | 0.01 | 0.01 | 75 | 1009.0 |
| 20260509231204 | 61 | 119 | 7.0 | 16.0 | 0.00 | 0.00 | 0.00 | 76 | 1009.4 |
| 20260509230704 | 62 | 117 | 7.0 | 21.0 | 0.00 | 0.00 | 0.00 | 74 | 1009.5 |
| 20260509230204 | 61 | 123 | 13.0 | 21.0 | 0.00 | 0.00 | 0.00 | 75 | 1009.8 |
| 20260509225704 | 61 | 117 | 12.0 | 21.0 | 0.00 | 0.00 | 0.00 | 76 | 1009.8 |
| 20260509224204 | 61 | 125 | 9.0 | 18.0 | 0.00 | 0.00 | 0.00 | 76 | 1009.9 |
| 20260509223704 | 61 | 132 | 10.0 | 18.0 | 0.00 | 0.00 | 0.00 | 76 | 1010.0 |
| 20260509222704 | 61 | 132 | 9.0 | 16.0 | 0.00 | 0.00 | 0.00 | 76 | 1010.1 |
| 20260509222203 | 62 | 134 | 10.0 | 16.0 | 0.00 | 0.00 | 0.00 | 75 | 1010.1 |
| 20260509221204 | 63 | 146 | 10.0 | 23.0 | 0.00 | 0.00 | 0.00 | 73 | 1010.3 |
| 20260509220204 | 64 | 131 | 16.0 | 26.0 | 0.00 | 0.00 | 0.00 | 70 | 1010.3 |
| 20260509215703 | 64 | 124 | 10.0 | 18.0 | 0.00 | 0.00 | 0.00 | 70 | 1010.2 |
| 20260509215204 | 64 | 123 | 9.0 | 16.0 | 0.00 | 0.00 | 0.00 | 75 | 1010.1 |
| 20260509214703 | 64 | 124 | 8.0 | 15.0 | 0.00 | 0.00 | 0.00 | 80 | 1010.2 |
| 20260509214204 | 63 | 92 | 8.0 | 12.0 | 0.00 | 0.00 | 0.00 | 82 | 1009.9 |
| 20260509213704 | 63 | 62 | 5.0 | 7.0 | 0.00 | 0.00 | 0.00 | 82 | 1009.6 |
| 20260509213203 | 64 | 38 | 5.0 | 7.0 | 0.00 | 0.00 | 0.00 | 82 | 1009.5 |
| 20260509212705 | 63 | 22 | 5.0 | 7.0 | 0.00 | 0.00 | 0.00 | 82 | 1009.4 |
| 20260509212204 | 64 | 7 | 5.0 | 7.0 | 0.00 | 0.00 | 0.00 | 80 | 1009.4 |
| 20260509211704 | 64 | 353 | 5.0 | 7.0 | 0.00 | 0.00 | 0.00 | 80 | 1009.4 |
| 20260509211204 | 64 | 346 | 5.0 | 7.0 | 0.00 | 0.00 | 0.00 | 81 | 1009.4 |
| 20260509210704 | 63 | 337 | 3.0 | 6.0 | 0.00 | 0.00 | 0.00 | 81 | 1009.4 |
| 20260509210204 | 64 | 330 | 5.0 | 7.0 | 0.00 | 0.00 | 0.00 | 79 | 1009.5 |
| 20260509205704 | 65 | 334 | 4.0 | 7.0 | 0.00 | 0.00 | 0.00 | 78 | 1009.5 |
| 20260509205203 | 65 | 346 | 5.0 | 9.0 | 0.00 | 0.00 | 0.00 | 77 | 1009.5 |
| 20260509204704 | 65 | 348 | 5.0 | 9.0 | 0.00 | 0.00 | 0.00 | 77 | 1009.4 |
| 20260509204204 | 65 | 355 | 6.0 | 9.0 | 0.00 | 0.00 | 0.00 | 77 | 1009.4 |
| 20260509203703 | 65 | 346 | 5.0 | 8.0 | 0.00 | 0.00 | 0.00 | 77 | 1009.4 |
| 20260509203204 | 64 | 343 | 3.0 | 6.0 | 0.00 | 0.00 | 0.00 | 79 | 1009.4 |
| 20260509202704 | 64 | 350 | 3.0 | 7.0 | 0.00 | 0.00 | 0.00 | 79 | 1009.4 |
| 20260509201703 | 66 | 344 | 5.0 | 8.0 | 0.00 | 0.00 | 0.00 | 75 | 1009.5 |
| 20260509201204 | 66 | 346 | 5.0 | 7.0 | 0.00 | 0.00 | 0.00 | 75 | 1009.4 |
| 20260509200704 | 66 | 348 | 5.0 | 7.0 | 0.00 | 0.00 | 0.00 | 75 | 1009.4 |
| 20260509195704 | 66 | 339 | 5.0 | 8.0 | 0.00 | 0.00 | 0.00 | 76 | 1009.3 |
| 20260509195204 | 66 | 333 | 3.0 | 8.0 | 0.00 | 0.00 | 0.00 | 76 | 1009.3 |
| 20260509194704 | 66 | 322 | 5.0 | 10.0 | 0.00 | 0.00 | 0.00 | 75 | 1009.2 |
| 20260509194204 | 66 | 306 | 7.0 | 10.0 | 0.00 | 0.00 | 0.00 | 76 | 1009.1 |
| 20260509193704 | 65 | 303 | 7.0 | 8.0 | 0.00 | 0.00 | 0.00 | 79 | 1009.1 |
| 20260509192704 | 66 | 305 | 2.0 | 2.0 | 0.00 | 0.00 | 0.00 | 80 | 1009.0 |
| 20260509192204 | 65 | 310 | 2.0 | 3.0 | 0.00 | 0.00 | 0.00 | 81 | 1009.0 |
| 20260509191704 | 66 | 288 | 3.0 | 3.0 | 0.00 | 0.00 | 0.00 | 80 | 1009.0 |
| 20260509191204 | 66 | 279 | 3.0 | 3.0 | 0.00 | 0.00 | 0.00 | 81 | 1009.1 |
| 20260509190704 | 66 | 279 | 2.0 | 3.0 | 0.00 | 0.00 | 0.00 | 80 | 1009.1 |
| 20260509190204 | 67 | 274 | 2.0 | 2.0 | 0.00 | 0.00 | 0.00 | 79 | 1009.1 |
| 20260509185704 | 67 | 279 | 2.0 | 2.0 | 0.00 | 0.00 | 0.00 | 77 | 1009.0 |
| 20260509185204 | 67 | 269 | 2.0 | 2.0 | 0.00 | 0.00 | 0.00 | 73 | 1009.0 |
| 20260509184704 | 67 | 262 | 1.0 | 2.0 | 0.00 | 0.00 | 0.00 | 71 | 1009.0 |
| 20260509184204 | 68 | 291 | 1.0 | 2.0 | 0.00 | 0.00 | 0.00 | 67 | 1009.0 |
| 20260509183704 | 69 | 340 | 1.0 | 2.0 | 0.00 | 0.00 | 0.00 | 67 | 1008.9 |
| 20260509182704 | 70 | 103 | 2.0 | 5.0 | 0.00 | 0.00 | 0.00 | 67 | 1008.8 |
| 20260509182204 | 70 | 96 | 3.0 | 5.0 | 0.00 | 0.00 | 0.00 | 64 | 1008.8 |
| 20260509181704 | 71 | 96 | 2.0 | 5.0 | 0.00 | 0.00 | 0.00 | 62 | 1008.8 |
| 20260509181203 | 71 | 106 | 2.0 | 3.0 | 0.00 | 0.00 | 0.00 | 60 | 1008.8 |
| 20260509180704 | 70 | 100 | 3.0 | 3.0 | 0.00 | 0.00 | 0.00 | 63 | 1008.8 |
| 20260509180204 | 71 | 98 | 3.0 | 5.0 | 0.00 | 0.00 | 0.00 | 62 | 1008.8 |
| 20260509175203 | 71 | 93 | 2.0 | 3.0 | 0.00 | 0.00 | 0.00 | 60 | 1008.7 |
| 20260509174703 | 72 | 85 | 2.0 | 5.0 | 0.00 | 0.00 | 0.00 | 60 | 1008.6 |
| 20260509174203 | 72 | 82 | 2.0 | 5.0 | 0.00 | 0.00 | 0.00 | 58 | 1008.6 |
| 20260509173704 | 72 | 92 | 3.0 | 6.0 | 0.00 | 0.00 | 0.00 | 58 | 1008.6 |
| 20260509173204 | 72 | 96 | 3.0 | 6.0 | 0.00 | 0.00 | 0.00 | 60 | 1008.6 |
| 20260509172704 | 72 | 109 | 4.0 | 6.0 | 0.00 | 0.00 | 0.00 | 58 | 1008.7 |
| 20260509171703 | 73 | 87 | 2.0 | 6.0 | 0.00 | 0.00 | 0.00 | 57 | 1008.7 |
| 20260509171203 | 73 | 78 | 2.0 | 6.0 | 0.00 | 0.00 | 0.00 | 55 | 1008.7 |
| 20260509170704 | 73 | 123 | 2.0 | 7.0 | 0.00 | 0.00 | 0.00 | 55 | 1008.6 |
| 20260509170203 | 73 | 105 | 2.0 | 8.0 | 0.00 | 0.00 | 0.00 | 54 | 1008.6 |
| 20260509165704 | 73 | 95 | 4.0 | 8.0 | 0.00 | 0.00 | 0.00 | 52 | 1008.6 |
| 20260509165204 | 73 | 107 | 5.0 | 13.0 | 0.00 | 0.00 | 0.00 | 54 | 1008.6 |
| 20260509164704 | 73 | 115 | 8.0 | 13.0 | 0.00 | 0.00 | 0.00 | 53 | 1008.7 |
| 20260509164204 | 73 | 129 | 7.0 | 12.0 | 0.00 | 0.00 | 0.00 | 57 | 1008.7 |
| 20260509163704 | 73 | 117 | 6.0 | 10.0 | 0.00 | 0.00 | 0.00 | 55 | 1008.7 |
| 20260509163204 | 73 | 124 | 7.0 | 10.0 | 0.00 | 0.00 | 0.00 | 52 | 1008.7 |
| 20260509162704 | 73 | 94 | 5.0 | 12.0 | 0.00 | 0.00 | 0.00 | 54 | 1008.7 |
| 20260509162205 | 73 | 122 | 6.0 | 12.0 | 0.00 | 0.00 | 0.00 | 55 | 1008.7 |
| 20260509161704 | 74 | 122 | 4.0 | 12.0 | 0.00 | 0.00 | 0.00 | 53 | 1008.8 |
| 20260509161204 | 74 | 98 | 5.0 | 14.0 | 0.00 | 0.00 | 0.00 | 54 | 1008.7 |
| 20260509160704 | 74 | 144 | 8.0 | 14.0 | 0.00 | 0.00 | 0.00 | 53 | 1008.7 |
| 20260509160204 | 74 | 135 | 5.0 | 9.0 | 0.00 | 0.00 | 0.00 | 53 | 1008.7 |
| 20260509155704 | 74 | 119 | 5.0 | 12.0 | 0.00 | 0.00 | 0.00 | 52 | 1008.8 |
| 20260509154704 | 74 | 105 | 6.0 | 12.0 | 0.00 | 0.00 | 0.00 | 52 | 1008.9 |
| 20260509154204 | 74 | 84 | 5.0 | 12.0 | 0.00 | 0.00 | 0.00 | 51 | 1008.9 |
| 20260509153704 | 74 | 106 | 3.0 | 13.0 | 0.00 | 0.00 | 0.00 | 53 | 1008.9 |
| 20260509152704 | 74 | 133 | 7.0 | 10.0 | 0.00 | 0.00 | 0.00 | 52 | 1009.0 |
| 20260509152204 | 74 | 149 | 7.0 | 10.0 | 0.00 | 0.00 | 0.00 | 53 | 1009.1 |
| 20260509151704 | 75 | 154 | 5.0 | 12.0 | 0.00 | 0.00 | 0.00 | 55 | 1009.1 |
| 20260509151204 | 74 | 137 | 6.0 | 16.0 | 0.00 | 0.00 | 0.00 | 55 | 1009.2 |
| 20260509150703 | 74 | 135 | 7.0 | 16.0 | 0.00 | 0.00 | 0.00 | 53 | 1009.3 |
| 20260509150204 | 74 | 96 | 4.0 | 10.0 | 0.00 | 0.00 | 0.00 | 51 | 1009.3 |
| 20260509145704 | 74 | 121 | 5.0 | 14.0 | 0.00 | 0.00 | 0.00 | 51 | 1009.4 |
| 20260509145204 | 74 | 128 | 7.0 | 16.0 | 0.00 | 0.00 | 0.00 | 53 | 1009.5 |
| 20260509144704 | 74 | 127 | 8.0 | 16.0 | 0.00 | 0.00 | 0.00 | 51 | 1009.5 |
| 20260509144204 | 74 | 110 | 7.0 | 14.0 | 0.00 | 0.00 | 0.00 | 52 | 1009.5 |
| 20260509143704 | 75 | 120 | 10.0 | 14.0 | 0.00 | 0.00 | 0.00 | 51 | 1009.6 |
| 20260509143204 | 75 | 113 | 5.0 | 13.0 | 0.00 | 0.00 | 0.00 | 53 | 1009.6 |
| 20260509142704 | 75 | 107 | 7.0 | 13.0 | 0.00 | 0.00 | 0.00 | 53 | 1009.6 |
| 20260509142204 | 75 | 150 | 5.0 | 12.0 | 0.00 | 0.00 | 0.00 | 54 | 1009.6 |
| 20260509141704 | 75 | 161 | 6.0 | 14.0 | 0.00 | 0.00 | 0.00 | 54 | 1009.6 |
| 20260509141204 | 75 | 136 | 8.0 | 14.0 | 0.00 | 0.00 | 0.00 | 55 | 1009.7 |
| 20260509140704 | 75 | 148 | 6.0 | 17.0 | 0.00 | 0.00 | 0.00 | 56 | 1009.7 |
| 20260509140204 | 74 | 138 | 11.0 | 17.0 | 0.00 | 0.00 | 0.00 | 53 | 1009.7 |
| 20260509135704 | 75 | 138 | 8.0 | 15.0 | 0.00 | 0.00 | 0.00 | 54 | 1009.8 |
| 20260509135204 | 74 | 151 | 7.0 | 14.0 | 0.00 | 0.00 | 0.00 | 53 | 1009.8 |
| 20260509134704 | 75 | 158 | 8.0 | 15.0 | 0.00 | 0.00 | 0.00 | 54 | 1009.8 |
| 20260509134204 | 75 | 106 | 10.0 | 15.0 | 0.00 | 0.00 | 0.00 | 53 | 1009.9 |
| 20260509133204 | 75 | 109 | 9.0 | 15.0 | 0.00 | 0.00 | 0.00 | 52 | 1009.9 |
| 20260509132204 | 75 | 113 | 8.0 | 15.0 | 0.00 | 0.00 | 0.00 | 51 | 1010.0 |
| 20260509131703 | 75 | 109 | 6.0 | 16.0 | 0.00 | 0.00 | 0.00 | 52 | 1010.1 |
| 20260509130704 | 75 | 99 | 8.0 | 15.0 | 0.00 | 0.00 | 0.00 | 53 | 1010.2 |
| 20260509130204 | 75 | 138 | 6.0 | 15.0 | 0.00 | 0.00 | 0.00 | 56 | 1010.2 |
| 20260509125704 | 74 | 82 | 6.0 | 15.0 | 0.00 | 0.00 | 0.00 | 53 | 1010.3 |
| 20260509125204 | 75 | 122 | 7.0 | 15.0 | 0.00 | 0.00 | 0.00 | 52 | 1010.3 |
| 20260509124203 | 73 | 98 | 8.0 | 17.0 | 0.00 | 0.00 | 0.00 | 55 | 1010.4 |
| 20260509123704 | 75 | 112 | 12.0 | 17.0 | 0.00 | 0.00 | 0.00 | 53 | 1010.4 |
| 20260509123204 | 75 | 130 | 5.0 | 14.0 | 0.00 | 0.00 | 0.00 | 54 | 1010.4 |
| 20260509122704 | 75 | 153 | 10.0 | 15.0 | 0.00 | 0.00 | 0.00 | 54 | 1010.4 |
| 20260509122204 | 74 | 168 | 9.0 | 15.0 | 0.00 | 0.00 | 0.00 | 54 | 1010.5 |
| 20260509121705 | 75 | 121 | 9.0 | 15.0 | 0.00 | 0.00 | 0.00 | 52 | 1010.5 |
| 20260509120704 | 74 | 126 | 6.0 | 17.0 | 0.00 | 0.00 | 0.00 | 55 | 1010.5 |
| 20260509115704 | 74 | 116 | 10.0 | 17.0 | 0.00 | 0.00 | 0.00 | 55 | 1010.3 |
| 20260509114704 | 73 | 106 | 6.0 | 15.0 | 0.00 | 0.00 | 0.00 | 59 | 1010.3 |
| 20260509114203 | 73 | 86 | 4.0 | 16.0 | 0.00 | 0.00 | 0.00 | 57 | 1010.4 |
| 20260509113704 | 73 | 141 | 8.0 | 16.0 | 0.00 | 0.00 | 0.00 | 59 | 1010.5 |
| 20260509113204 | 73 | 126 | 6.0 | 15.0 | 0.00 | 0.00 | 0.00 | 58 | 1010.5 |
| 20260509112704 | 73 | 127 | 7.0 | 14.0 | 0.00 | 0.00 | 0.00 | 58 | 1010.6 |
| 20260509112204 | 73 | 141 | 8.0 | 14.0 | 0.00 | 0.00 | 0.00 | 59 | 1010.7 |
| 20260509111704 | 72 | 127 | 5.0 | 16.0 | 0.00 | 0.00 | 0.00 | 60 | 1010.8 |
| 20260509111204 | 72 | 125 | 3.0 | 16.0 | 0.00 | 0.00 | 0.00 | 60 | 1010.9 |
| 20260509110204 | 72 | 154 | 6.0 | 14.0 | 0.00 | 0.00 | 0.00 | 60 | 1011.0 |
| 20260509105704 | 72 | 125 | 7.0 | 15.0 | 0.00 | 0.00 | 0.00 | 62 | 1011.0 |
| 20260509105204 | 71 | 167 | 9.0 | 15.0 | 0.00 | 0.00 | 0.00 | 62 | 1011.1 |
| 20260509104704 | 72 | 138 | 9.0 | 15.0 | 0.00 | 0.00 | 0.00 | 60 | 1011.1 |
| 20260509104204 | 71 | 167 | 8.0 | 14.0 | 0.00 | 0.00 | 0.00 | 61 | 1011.2 |
| 20260509103704 | 72 | 159 | 10.0 | 15.0 | 0.00 | 0.00 | 0.00 | 61 | 1011.3 |
| 20260509103204 | 72 | 118 | 9.0 | 15.0 | 0.00 | 0.00 | 0.00 | 62 | 1011.3 |
| 20260509102204 | 71 | 111 | 7.0 | 14.0 | 0.00 | 0.00 | 0.00 | 63 | 1011.3 |
| 20260509101704 | 71 | 124 | 8.0 | 14.0 | 0.00 | 0.00 | 0.00 | 63 | 1011.4 |
| 20260509101204 | 70 | 127 | 6.0 | 14.0 | 0.00 | 0.00 | 0.00 | 64 | 1011.4 |
| 20260509100705 | 71 | 128 | 8.0 | 13.0 | 0.00 | 0.00 | 0.00 | 66 | 1011.5 |
| 20260509100205 | 70 | 157 | 8.0 | 14.0 | 0.00 | 0.00 | 0.00 | 64 | 1011.5 |
| 20260509095704 | 70 | 158 | 10.0 | 15.0 | 0.00 | 0.00 | 0.00 | 64 | 1011.5 |
| 20260509095204 | 70 | 164 | 11.0 | 15.0 | 0.00 | 0.00 | 0.00 | 65 | 1011.5 |
| 20260509094203 | 70 | 145 | 9.0 | 16.0 | 0.00 | 0.00 | 0.00 | 67 | 1011.4 |
| 20260509093704 | 69 | 154 | 10.0 | 16.0 | 0.00 | 0.00 | 0.00 | 67 | 1011.5 |
| 20260509093204 | 69 | 154 | 10.0 | 15.0 | 0.00 | 0.00 | 0.00 | 67 | 1011.5 |
| 20260509092704 | 68 | 158 | 6.0 | 15.0 | 0.00 | 0.00 | 0.00 | 69 | 1011.5 |
| 20260509092205 | 68 | 153 | 7.0 | 15.0 | 0.00 | 0.00 | 0.00 | 70 | 1011.6 |
| 20260509091703 | 68 | 155 | 9.0 | 14.0 | 0.00 | 0.00 | 0.00 | 70 | 1011.6 |
| 20260509091204 | 67 | 133 | 9.0 | 13.0 | 0.00 | 0.00 | 0.00 | 70 | 1011.5 |
| 20260509090704 | 68 | 150 | 6.0 | 10.0 | 0.00 | 0.00 | 0.00 | 70 | 1011.4 |
| 20260509090204 | 68 | 141 | 6.0 | 13.0 | 0.00 | 0.00 | 0.00 | 69 | 1011.3 |
| 20260509085704 | 68 | 135 | 6.0 | 13.0 | 0.00 | 0.00 | 0.00 | 70 | 1011.1 |
| 20260509085204 | 68 | 161 | 9.0 | 15.0 | 0.00 | 0.00 | 0.00 | 71 | 1011.1 |
| 20260509084204 | 67 | 159 | 10.0 | 15.0 | 0.00 | 0.00 | 0.00 | 71 | 1011.1 |
| 20260509083704 | 67 | 156 | 7.0 | 16.0 | 0.00 | 0.00 | 0.00 | 72 | 1011.0 |
| 20260509083204 | 66 | 157 | 7.0 | 16.0 | 0.00 | 0.00 | 0.00 | 72 | 1011.1 |
| 20260509082704 | 66 | 154 | 9.0 | 16.0 | 0.00 | 0.00 | 0.00 | 73 | 1011.1 |
| 20260509082204 | 65 | 158 | 10.0 | 15.0 | 0.00 | 0.00 | 0.00 | 74 | 1011.1 |
| 20260509081205 | 64 | 147 | 8.0 | 16.0 | 0.00 | 0.00 | 0.00 | 74 | 1011.3 |
| 20260509080204 | 64 | 141 | 10.0 | 18.0 | 0.00 | 0.00 | 0.00 | 75 | 1011.6 |
| 20260509075704 | 64 | 124 | 7.0 | 15.0 | 0.00 | 0.00 | 0.00 | 77 | 1011.6 |
| 20260509075204 | 63 | 153 | 10.0 | 15.0 | 0.00 | 0.00 | 0.00 | 77 | 1011.6 |
| 20260509074704 | 63 | 139 | 6.0 | 12.0 | 0.00 | 0.00 | 0.00 | 79 | 1011.6 |
| 20260509074204 | 61 | 143 | 6.0 | 14.0 | 0.00 | 0.00 | 0.00 | 81 | 1011.7 |
| 20260509072704 | 60 | 130 | 7.0 | 13.0 | 0.00 | 0.00 | 0.00 | 81 | 1011.6 |
| 20260509072205 | 61 | 125 | 7.0 | 15.0 | 0.00 | 0.00 | 0.00 | 81 | 1011.6 |
| 20260509071704 | 61 | 123 | 9.0 | 15.0 | 0.00 | 0.00 | 0.00 | 81 | 1011.6 |
| 20260509071206 | 60 | 127 | 7.0 | 15.0 | 0.00 | 0.00 | 0.00 | 82 | 1011.6 |
| 20260509070703 | 60 | 127 | 7.0 | 15.0 | 0.00 | 0.00 | 0.00 | 82 | 1011.6 |
| 20260509070204 | 59 | 134 | 9.0 | 14.0 | 0.00 | 0.00 | 0.00 | 82 | 1011.7 |
| 20260509065704 | 59 | 130 | 8.0 | 13.0 | 0.00 | 0.00 | 0.00 | 83 | 1011.7 |
| 20260509065204 | 59 | 129 | 7.0 | 13.0 | 0.00 | 0.00 | 0.00 | 84 | 1011.7 |
| 20260509064704 | 59 | 139 | 9.0 | 13.0 | 0.00 | 0.00 | 0.00 | 84 | 1011.7 |
| 20260509064204 | 59 | 135 | 7.0 | 13.0 | 0.00 | 0.00 | 0.00 | 84 | 1011.8 |
| 20260509063704 | 58 | 136 | 8.0 | 13.0 | 0.00 | 0.00 | 0.00 | 85 | 1011.7 |
| 20260509062704 | 58 | 133 | 6.0 | 9.0 | 0.00 | 0.00 | 0.00 | 86 | 1011.7 |
| 20260509062204 | 58 | 130 | 3.0 | 8.0 | 0.00 | 0.00 | 0.00 | 86 | 1011.7 |
| 20260509061704 | 58 | 136 | 5.0 | 7.0 | 0.00 | 0.00 | 0.00 | 86 | 1011.7 |
| 20260509061204 | 58 | 125 | 5.0 | 7.0 | 0.00 | 0.00 | 0.00 | 86 | 1011.6 |
| 20260509060704 | 57 | 123 | 3.0 | 6.0 | 0.00 | 0.00 | 0.00 | 86 | 1011.6 |
| 20260509055704 | 57 | 132 | 3.0 | 7.0 | 0.00 | 0.00 | 0.00 | 87 | 1011.6 |
| 20260509054703 | 56 | 139 | 5.0 | 8.0 | 0.00 | 0.00 | 0.00 | 87 | 1011.5 |
| 20260509054204 | 56 | 142 | 5.0 | 8.0 | 0.00 | 0.00 | 0.00 | 87 | 1011.5 |
| 20260509053704 | 56 | 137 | 5.0 | 8.0 | 0.00 | 0.00 | 0.00 | 87 | 1011.4 |
| 20260509053204 | 56 | 134 | 5.0 | 8.0 | 0.00 | 0.00 | 0.00 | 87 | 1011.4 |
| 20260509052704 | 56 | 130 | 5.0 | 8.0 | 0.00 | 0.00 | 0.00 | 87 | 1011.4 |
| 20260509052204 | 56 | 130 | 5.0 | 10.0 | 0.00 | 0.00 | 0.00 | 87 | 1011.4 |
| 20260509051704 | 56 | 131 | 5.0 | 10.0 | 0.00 | 0.00 | 0.00 | 87 | 1011.3 |
| 20260509050704 | 56 | 144 | 6.0 | 9.0 | 0.00 | 0.00 | 0.00 | 87 | 1011.4 |
| 20260509050204 | 55 | 138 | 6.0 | 9.0 | 0.00 | 0.00 | 0.00 | 87 | 1011.3 |
| 20260509045704 | 55 | 137 | 6.0 | 9.0 | 0.00 | 0.00 | 0.00 | 88 | 1011.3 |
| 20260509045204 | 55 | 138 | 6.0 | 9.0 | 0.00 | 0.00 | 0.00 | 88 | 1011.3 |
| 20260509044704 | 55 | 125 | 6.0 | 8.0 | 0.00 | 0.00 | 0.00 | 87 | 1011.2 |
| 20260509044204 | 55 | 126 | 4.0 | 8.0 | 0.00 | 0.00 | 0.00 | 87 | 1011.2 |
| 20260509043704 | 55 | 128 | 5.0 | 8.0 | 0.00 | 0.00 | 0.00 | 87 | 1011.2 |
| 20260509043204 | 56 | 119 | 5.0 | 8.0 | 0.00 | 0.00 | 0.00 | 87 | 1011.1 |
| 20260509042704 | 55 | 121 | 5.0 | 8.0 | 0.00 | 0.00 | 0.00 | 88 | 1011.0 |
| 20260509042204 | 55 | 115 | 5.0 | 8.0 | 0.00 | 0.00 | 0.00 | 88 | 1011.0 |
| 20260509041703 | 55 | 119 | 6.0 | 8.0 | 0.00 | 0.00 | 0.00 | 88 | 1010.9 |
| 20260509041204 | 55 | 133 | 5.0 | 6.0 | 0.00 | 0.00 | 0.00 | 88 | 1011.0 |
| 20260509040704 | 55 | 132 | 5.0 | 6.0 | 0.00 | 0.00 | 0.00 | 87 | 1011.1 |
| 20260509040204 | 55 | 142 | 3.0 | 6.0 | 0.00 | 0.00 | 0.00 | 87 | 1011.0 |
| 20260509035703 | 56 | 130 | 3.0 | 6.0 | 0.00 | 0.00 | 0.00 | 86 | 1011.0 |
| 20260509035204 | 56 | 130 | 5.0 | 7.0 | 0.00 | 0.00 | 0.00 | 87 | 1011.1 |
| 20260509034704 | 55 | 114 | 5.0 | 7.0 | 0.00 | 0.00 | 0.00 | 88 | 1011.0 |
| 20260509034204 | 55 | 118 | 4.0 | 7.0 | 0.00 | 0.00 | 0.00 | 88 | 1011.1 |
| 20260509033704 | 55 | 113 | 4.0 | 6.0 | 0.00 | 0.00 | 0.00 | 88 | 1011.1 |
| 20260509033204 | 55 | 105 | 3.0 | 5.0 | 0.00 | 0.00 | 0.00 | 89 | 1011.1 |
| 20260509032704 | 55 | 87 | 3.0 | 5.0 | 0.00 | 0.00 | 0.00 | 89 | 1011.1 |